#timestamp,LO_Frequency,Hit 
1598882415.3,286046999.3,N
1598882435.1,286046998.9,N
1598882436.0,286046998.9,N
1598882455.8,286046998.2,N
1598882475.7,286046996.5,N
1598882495.5,286046999.3,N
1598882515.3,286046999.5,N
1598882535.2,286046999.4,N
1598882555.9,286046999.6,N
1598882575.7,286046997.0,N
1598882595.6,286046998.1,N
1598882615.4,286046998.4,N
1598882635.2,286046999.4,N
1598882655.1,286046996.6,N
1598882656.0,286046996.6,N
1598882675.8,286046998.5,N
1598882695.6,286046999.2,N
1598882715.5,286046996.5,N
1598882735.3,286046998.6,N
1598882755.1,286046998.6,N
1598882775.9,286046998.7,N
1598882795.7,286046999.3,N
1598882815.5,286046999.6,N
1598882835.4,286046998.3,N
1598882855.2,286046999.0,N
1598882875.0,286046999.6,N
1598882875.9,286046999.6,N
1598882895.8,286046998.9,N
1598882915.6,286046999.6,N
1598882935.4,286046998.7,N
1598882955.3,286046996.5,P
1598882975.1,286047001.1,N
1598882995.8,286047000.7,N
1598883015.7,286046998.4,N
1598883035.5,286046998.6,N
1598883055.3,286046998.6,N
1598883075.2,286046998.8,N
1598883095.0,286047000.9,N
1598883095.9,286047000.9,N
1598883115.7,286047000.7,N
1598883135.6,286046998.4,N
1598883155.4,286046999.3,N
1598883175.2,286046998.1,N
1598883195.1,286047000.9,N
1598883196.0,286047000.9,N
1598883215.8,286046999.0,N
1598883235.6,286047000.8,N
1598883255.5,286046999.1,N
1598883275.3,286046998.4,N
1598883295.1,286047001.1,N
1598883315.9,286047000.8,N
1598883335.7,286046998.6,N
1598883355.5,286047001.1,N
1598883375.4,286046998.7,N
1598883395.2,286047001.2,N
1598883415.0,286046998.3,N
1598883416.0,286046998.3,N
1598883435.8,286046999.3,N
1598883455.6,286046998.5,N
1598883475.4,286047000.8,N
1598883495.3,286046999.1,N
1598883515.1,286046998.6,N
1598883535.9,286046996.6,P
1598883555.7,286046999.5,N
1598883575.5,286046999.2,N
1598883595.4,286046998.8,N
1598883615.2,286046999.5,N
1598883635.0,286046999.2,N
1598883635.9,286046999.2,N
1598883655.8,286046999.4,N
1598883675.6,286046997.0,P
1598883695.4,286046999.6,N
1598883715.3,286046998.6,N
1598883735.1,286046996.9,P
1598883755.8,286046998.5,N
1598883775.7,286046998.8,N
1598883795.5,286046998.4,N
1598883815.3,286046998.4,N
1598883835.2,286046998.9,N
1598883855.0,286046998.7,N
1598883855.9,286046998.7,N
1598883875.7,286046999.3,N
1598883895.6,286046999.1,N
1598883915.4,286046998.3,N
1598883935.2,286046999.2,N
1598883955.1,286046999.5,N
1598883956.0,286046999.5,N
1598883975.8,286046998.3,N
1598883995.6,286047000.8,N
1598884015.5,286047000.4,N
1598884035.3,286046998.3,N
1598884055.1,286047001.0,N
1598884075.9,286047002.8,N
1598884095.7,286047000.1,N
1598884115.5,286047002.5,N
1598884135.4,286047002.3,N
1598884155.2,286047002.1,N
1598884175.0,286047001.7,N
1598884175.9,286047001.7,N
1598884195.8,286047001.9,N
1598884215.6,286047003.8,N
1598884235.4,286047003.2,N
1598884255.3,286047003.7,N
1598884275.1,286047003.4,N
1598884295.8,286047003.4,N
1598884315.7,286047006.0,P
1598884335.5,286047005.4,N
1598884355.4,286047004.9,N
1598884375.2,286047005.4,N
1598884395.0,286047007.0,P
1598884395.9,286047007.0,P
1598884415.8,286047003.9,P
1598884435.6,286047004.3,N
1598884455.4,286047003.7,N
1598884475.3,286047003.9,N
1598884495.1,286047003.6,N
1598884496.0,286047003.6,N
1598884515.8,286047005.8,P
1598884535.7,286046999.1,N
1598884555.5,286047000.5,N
1598884575.3,286047001.1,N
1598884595.2,286047001.0,N
1598884615.0,286047002.7,N
1598884615.9,286047002.7,N
1598884635.7,286047002.0,N
1598884655.6,286046999.8,N
1598884675.4,286047001.6,N
1598884695.2,286047004.3,N
1598884715.1,286047006.0,P
1598884716.0,286047006.0,P
1598884735.8,286047001.5,N
1598884755.7,286047002.6,N
1598884775.5,286047004.2,N
1598884795.3,286047001.7,N
1598884815.2,286047001.7,N
1598884835.9,286047004.0,N
1598884855.7,286047004.4,N
1598884875.6,286047003.8,N
1598884895.4,286047003.0,N
1598884915.2,286047003.2,N
1598884935.0,286047003.1,N
1598884936.0,286047003.1,N
1598884955.8,286047002.9,N
1598884975.6,286047003.4,N
1598884995.5,286047005.8,P
1598885015.3,286047000.1,N
1598885035.1,286047001.6,N
1598885055.9,286047001.5,N
1598885075.7,286047001.8,N
1598885095.5,286047004.4,N
1598885115.4,286047001.6,N
1598885135.2,286047001.7,N
1598885155.0,286047003.9,N
1598885155.9,286047003.9,N
1598885175.8,286047001.7,N
1598885195.6,286047003.6,N
1598885215.4,286047005.8,P
1598885235.3,286047002.7,N
1598885255.1,286047003.9,N
1598885275.9,286047004.2,P
1598885295.7,286047000.9,P
1598885315.5,286047000.0,N
1598885335.3,286047000.4,N
1598885355.2,286047002.8,N
1598885375.0,286047002.0,N
1598885375.9,286047002.0,N
1598885395.8,286047002.2,N
1598885415.6,286047002.3,N
1598885435.4,286047002.0,N
1598885455.2,286047001.4,N
1598885475.1,286047004.3,P
1598885476.0,286047004.3,P
1598885495.8,286047002.4,N
1598885515.7,286047001.5,N
1598885535.5,286047002.6,N
1598885555.3,286047004.1,P
1598885575.2,286046999.8,N
1598885595.9,286047002.1,N
1598885615.7,286047002.4,N
1598885635.6,286047001.5,N
1598885655.4,286047004.4,P
1598885675.2,286046999.7,N
1598885695.1,286047001.0,N
1598885696.0,286047001.0,N
1598885715.8,286047001.5,N
1598885735.6,286047004.2,N
1598885755.5,286047001.4,N
1598885775.3,286047001.8,N
1598885795.1,286047001.5,N
1598885815.9,286047004.2,P
1598885835.7,286047001.8,N
1598885855.6,286047002.0,N
1598885875.4,286047004.3,P
1598885895.2,286047000.3,N
1598885915.1,286047000.3,N
1598885916.0,286047000.3,N
1598885935.8,286047002.6,N
1598885955.6,286047002.0,N
1598885975.5,286047002.6,N
1598885995.3,286047001.8,N
